Location: Unspecified
(39.0942°N, 0.0000°E)
Time: 00:27:51
(UTC+00:00)

Explorer 31 - Visible Passes

Search period start: 04 April 2026 00:00
Search period end: 14 April 2026 00:00
Orbit: 503 x 2785 km, 79.8° (Epoch: 28 March)

Date Brightness Start Highest point End Pass type
(mag) Time Alt. Az. Time Alt. Az. Time Alt. Az.
4 Apr 10.8 00:43:42 10° N 00:59:02 53° ENE 01:03:46 40° ESE visible
4 Apr 10.4 02:45:07 10° NNW 02:59:46 52° W 03:02:58 45° WSW visible
4 Apr 11.6 04:52:47 10° NW 04:56:02 11° WNW 04:59:10 10° WNW visible
4 Apr 12.1 22:35:25 10° N 22:43:54 16° NE 22:51:37 10° ENE visible
5 Apr 10.8 00:34:38 10° N 00:49:51 52° ENE 00:54:06 41° ESE visible
5 Apr 10.3 02:36:02 10° NNW 02:50:39 53° W 02:53:18 48° WSW visible
5 Apr 11.6 04:43:28 10° NW 04:46:58 11° WNW 04:50:18 10° WNW visible
5 Apr 12.1 22:26:26 10° N 22:34:35 15° NE 22:42:02 10° ENE visible
6 Apr 10.8 00:25:35 10° N 00:40:40 51° ENE 00:44:31 42° ESE visible
6 Apr 10.3 02:26:58 10° NNW 02:41:33 54° W 02:43:42 50° WSW visible
6 Apr 11.6 04:34:10 10° NW 04:37:53 11° WNW 04:41:25 10° W visible
6 Apr 12.1 22:17:28 10° N 22:25:18 15° NE 22:32:26 10° ENE visible
7 Apr 10.8 00:16:32 10° N 00:31:28 49° ENE 00:34:58 42° ESE visible
7 Apr 10.3 02:17:54 10° NNW 02:32:26 54° W 02:34:11 52° WSW visible
7 Apr 11.6 04:24:54 10° NW 04:28:48 12° WNW 04:32:29 10° W visible
7 Apr 12.1 22:08:31 10° N 22:15:59 15° NE 22:22:47 10° ENE visible
8 Apr 10.7 00:07:29 10° N 00:22:16 48° ENE 00:25:29 42° E visible
8 Apr 10.2 02:08:49 10° NNW 02:23:19 55° W 02:24:42 53° WSW visible
8 Apr 11.6 04:15:38 10° NW 04:19:42 12° WNW 04:23:31 10° W visible
8 Apr 12.1 21:59:35 10° N 22:06:40 14° NE 22:13:08 10° ENE visible
8 Apr 10.7 23:58:27 10° N 00:13:03 47° ENE 00:16:03 42° E visible
9 Apr 10.2 01:59:45 10° NNW 02:14:11 56° W 02:15:16 55° WSW visible
9 Apr 11.5 04:06:24 10° NW 04:10:36 12° WNW 04:14:29 10° W visible
9 Apr 12.0 21:50:41 10° N 21:57:21 14° NE 22:03:26 10° ENE visible
9 Apr 10.7 23:49:24 10° N 00:03:50 46° ENE 00:06:38 41° E visible
10 Apr 10.2 01:50:41 10° NNW 02:05:02 57° W 02:05:51 56° W visible
10 Apr 11.5 03:57:11 10° NW 04:01:30 12° WNW 04:05:04 10° W visible
10 Apr 12.0 21:41:47 10° N 21:48:01 13° NE 21:53:42 10° ENE visible
10 Apr 10.7 23:40:22 10° N 23:54:35 44° ENE 23:57:15 40° E visible
11 Apr 10.1 01:41:36 10° NNW 01:55:53 58° W 01:56:29 57° W visible
11 Apr 11.5 03:47:58 10° NW 03:52:23 12° WNW 03:55:42 11° W visible
11 Apr 12.0 21:32:56 10° N 21:38:40 13° NNE 21:43:56 10° ENE visible
11 Apr 10.7 23:31:19 10° N 23:45:21 43° ENE 23:47:54 40° E visible
12 Apr 10.1 01:32:32 10° NNW 01:46:44 59° W 01:47:08 58° W visible
12 Apr 11.5 03:38:45 10° NW 03:43:17 12° WNW 03:46:21 11° W visible
12 Apr 12.0 21:24:07 10° NNE 21:29:19 12° NNE 21:34:07 10° NE visible
12 Apr 10.7 23:22:17 10° N 23:36:05 42° ENE 23:38:34 39° E visible
13 Apr 10.1 01:23:28 10° NNW 01:37:34 60° W 01:37:48 59° W visible
13 Apr 11.5 03:29:33 10° NW 03:34:08 12° WNW 03:37:01 11° WNW visible
13 Apr 12.0 21:15:22 10° NNE 21:19:58 12° NNE 21:24:14 10° NE visible
13 Apr 10.7 23:13:15 10° N 23:26:49 41° ENE 23:29:15 38° E visible
